Regional Weather Roundup
Issued by NWS Spokane, WA

Home | Current Version | Previous Version | Text Only | Print | Product List | Glossary On
Versions: 1 2 3 4 5 6 7 8 9 10 11 12 13 14 15 16 17 18 19 20 21 22 23 24 25 26 27 28 29 30 31 32 33 34 35 36 37 38 39 40 41 42 43 44 45 46 47 48 49 50
208
NZUS01 KOTX 240225
RWROTX

Eastern Washington/Northern Idaho Roundup
National Weather Service, Spokane WA
600 PM PST FRI FEB 23 2018

Note: "fair" indicated few or no clouds below 12,000 feet with no
significant weather and/or obstructions to visibility.

...Northeast Washington and Northern Idaho Panhandle...

CITY           SKY/WX    TMP DP  RH WIND       PRES   REMARKS
Spokane Intl   LGT SNOW  21  19  92 S12       30.16F FOG     WCI   9
Spokane Downto LGT SNOW  24  18  77 SW7       30.20F WCI  16
Coeur d Alene  LGT SNOW  21  19  93 SW8       30.17F FOG     WCI  12
Deer Park      LGT SNOW  21  19  92 S9        30.17F FOG     WCI  11
Sandpoint      LGT SNOW  23  19  86 SW5       30.16F WCI  17
Bonners Ferry  CLOUDY    21  16  79 SW7       30.11F WCI  13

...Southeast Washington and southern Idaho Panhandle...

CITY           SKY/WX    TMP DP  RH WIND       PRES   REMARKS
Walla Walla    LGT SNOW  29  25  85 S17       30.30F FOG     WCI  17
Pullman/Moscow LGT SNOW  22  19  89 W10       30.21F FOG     WCI  11
Lewiston       CLOUDY    31  17  56 SW3       30.26F
Lowell           N/A     29  22  75 CALM      30.28S
Grangeville    CLOUDY    23  18  80 W13       30.16F WCI  11

...Columbia Basin...

CITY           SKY/WX    TMP DP  RH WIND       PRES   REMARKS
Ephrata        MOCLDY    25  23  92 S7        30.19F WCI  17
Moses Lake     CLOUDY    27  25  92 S13       30.21F WCI  16
Pasco          CLOUDY    31  22  69 SW5       30.32F WCI  26
Richland       MOCLDY    32  22  64 MISG      30.29F
Hermiston      CLOUDY    31  23  72 S6        30.30F WCI  25
Pendleton      LGT SNOW  27  25  92 S13       30.28F FOG     WCI  16

...East Slopes Cascades...

CITY           SKY/WX    TMP DP  RH WIND       PRES   REMARKS
The Dalles     CLOUDY    35  25  66 NE6       30.32F
Yakima         PTCLDY    31  19  61 SE8       30.22F WCI  23
Ellensburg     CLOUDY    30  19  63 W5        30.16F WCI  25
Stampede Pass  LGT SNOW  22  20  92 CALM      30.02F FOG
Wenatchee      MOCLDY    27  21  78 E8        30.17F WCI  19
Winthrop       MOCLDY    15   7  72 CALM      30.15F
Omak           CLOUDY    24  21  88 S9        30.16F WCI  14
Sunnyside      PTCLDY    27  21  77 E9        30.25F WCI  18

...Southern British Columbia...

CITY           SKY/WX    TMP DP  RH WIND       PRES   REMARKS
Penticton      FLURRIES  23  18  80 S20G26    30.12F WCI   8
Cranbrook      CLOUDY    19  10  68 S8        30.00S WCI   9
Osoyoos          N/A     23  21  93 SE3         N/A
Creston          N/A     21  12  68 SW2         N/A

...Western Montana...

CITY           SKY/WX    TMP DP  RH WIND       PRES   REMARKS
Kalispell      MOCLDY    18  11  74 SW9       30.07F WCI   7
Missoula       CLOUDY    22   8  55 NW8       30.10S WCI  12

...Neighboring Cities...

CITY           SKY/WX    TMP DP  RH WIND       PRES   REMARKS
Seattle        LGT SNOW  33  31  92 S12       30.19F FOG     WCI  24
Portland       CLOUDY    39  27  62 SW13G20   30.36F
Boise          MOCLDY    28  11  48 E5        30.24F WCI  23
Great Falls    CLEAR     16   5  62 SW18      29.83R WCI   0
Calgary        CLOUDY    27   3  36 W21G30    29.59S WCI  13



USA.gov is the U.S. government's official web portal to all federal, state and local government web resources and services.